Time,TemperatureF,DewpointF,PressureIn,WindDirection,WindDirectionDegrees,WindSpeedMPH,WindSpeedGustMPH,Humidity,HourlyPrecipIn,Conditions,Clouds,dailyrainin,SoftwareType,DateUTC
2013-02-11 00:01:00,33.0,29.0,29.69,WNW,293,2.0,3.0,86,0.00,,,0.00,,2013-02-11 07:01:00,
2013-02-11 00:11:00,33.0,29.0,29.69,South,180,1.0,1.0,86,0.00,,,0.00,,2013-02-11 07:11:00,
2013-02-11 00:21:00,33.0,29.0,29.69,South,180,1.0,1.0,86,0.00,,,0.00,,2013-02-11 07:21:00,
2013-02-11 00:31:00,33.0,29.0,29.69,North,0,0.0,2.0,86,0.00,,,0.00,,2013-02-11 07:31:00,
2013-02-11 00:41:00,33.0,29.0,29.69,ENE,68,1.0,1.0,85,0.00,,,0.00,,2013-02-11 07:41:00,
2013-02-11 00:52:00,33.0,29.0,29.69,ENE,68,1.0,1.0,85,0.00,,,0.00,,2013-02-11 07:52:00,
2013-02-11 01:01:00,33.0,29.0,29.69,ENE,68,2.0,2.0,85,0.00,,,0.00,,2013-02-11 08:01:00,
2013-02-11 01:11:00,33.0,29.0,29.69,NE,45,2.0,3.0,84,0.00,,,0.00,,2013-02-11 08:11:00,
2013-02-11 01:21:00,33.0,29.0,29.69,NE,45,2.0,3.0,84,0.00,,,0.00,,2013-02-11 08:21:00,
2013-02-11 01:31:00,33.0,29.0,29.69,East,90,0.0,0.0,84,0.00,,,0.00,,2013-02-11 08:31:00,
2013-02-11 01:42:00,31.0,26.0,29.69,East,90,3.0,5.0,81,0.00,,,0.00,,2013-02-11 08:42:00,
2013-02-11 01:52:00,31.0,26.0,29.69,East,90,3.0,5.0,81,0.00,,,0.00,,2013-02-11 08:52:00,
2013-02-11 02:01:00,30.0,25.0,29.69,East,90,2.0,4.0,81,0.00,,,0.00,,2013-02-11 09:01:00,
2013-02-11 02:12:00,30.0,25.0,29.69,East,90,2.0,4.0,81,0.00,,,0.00,,2013-02-11 09:12:00,
2013-02-11 02:21:00,30.0,25.0,29.69,ENE,68,2.0,2.0,83,0.00,,,0.00,,2013-02-11 09:21:00,
2013-02-11 02:31:00,29.0,24.0,29.69,ENE,68,0.0,1.0,81,0.00,,,0.00,,2013-02-11 09:31:00,
2013-02-11 02:41:00,29.0,24.0,29.69,ENE,68,0.0,1.0,81,0.00,,,0.00,,2013-02-11 09:41:00,
2013-02-11 02:52:00,29.0,24.0,29.69,East,90,2.0,3.0,80,0.00,,,0.00,,2013-02-11 09:52:00,
2013-02-11 03:01:00,29.0,23.0,29.69,ESE,113,2.0,2.0,79,0.00,,,0.00,,2013-02-11 10:01:00,
2013-02-11 03:11:00,29.0,23.0,29.69,ESE,113,2.0,2.0,79,0.00,,,0.00,,2013-02-11 10:11:00,
2013-02-11 03:21:00,28.0,22.0,29.69,ESE,113,1.0,2.0,78,0.00,,,0.00,,2013-02-11 10:21:00,
2013-02-11 03:31:00,28.0,22.0,29.73,SE,135,1.0,3.0,78,0.00,,,0.00,,2013-02-11 10:31:00,
2013-02-11 03:41:00,28.0,22.0,29.73,SE,135,1.0,3.0,78,0.00,,,0.00,,2013-02-11 10:41:00,
2013-02-11 03:52:00,28.0,22.0,29.69,ESE,113,1.0,2.0,77,0.00,,,0.00,,2013-02-11 10:52:00,
2013-02-11 04:01:00,28.0,22.0,29.73,East,90,2.0,2.0,78,0.00,,,0.00,,2013-02-11 11:01:00,
2013-02-11 04:11:00,28.0,22.0,29.73,East,90,2.0,2.0,78,0.00,,,0.00,,2013-02-11 11:11:00,
2013-02-11 04:21:00,28.0,22.0,29.69,ESE,113,2.0,3.0,77,0.00,,,0.00,,2013-02-11 11:21:00,
2013-02-11 04:32:00,28.0,21.0,29.69,NE,45,2.0,4.0,76,0.00,,,0.00,,2013-02-11 11:32:00,
2013-02-11 04:42:00,28.0,21.0,29.69,East,90,0.0,0.0,76,0.00,,,0.00,,2013-02-11 11:42:00,
2013-02-11 04:52:00,28.0,21.0,29.69,East,90,0.0,0.0,76,0.00,,,0.00,,2013-02-11 11:52:00,
2013-02-11 05:02:00,28.0,21.0,29.69,ESE,113,0.0,1.0,75,0.00,,,0.00,,2013-02-11 12:02:00,
2013-02-11 05:12:00,28.0,21.0,29.69,ESE,113,0.0,1.0,75,0.00,,,0.00,,2013-02-11 12:12:00,
2013-02-11 05:22:00,27.0,20.0,29.69,ESE,113,2.0,3.0,73,0.00,,,0.00,,2013-02-11 12:22:00,
2013-02-11 05:31:00,27.0,20.0,29.69,ENE,68,2.0,2.0,73,0.00,,,0.00,,2013-02-11 12:31:00,
2013-02-11 05:42:00,27.0,20.0,29.69,ESE,113,0.0,2.0,74,0.00,,,0.00,,2013-02-11 12:42:00,
2013-02-11 05:52:00,27.0,20.0,29.69,ESE,113,0.0,2.0,74,0.00,,,0.00,,2013-02-11 12:52:00,
2013-02-11 06:01:00,27.0,19.0,29.69,East,90,2.0,2.0,72,0.00,,,0.00,,2013-02-11 13:01:00,
2013-02-11 06:11:00,27.0,20.0,29.69,ENE,68,1.0,2.0,73,0.00,,,0.00,,2013-02-11 13:11:00,
2013-02-11 06:21:00,27.0,20.0,29.69,ENE,68,1.0,2.0,73,0.00,,,0.00,,2013-02-11 13:21:00,
2013-02-11 06:32:00,26.0,19.0,29.69,ESE,113,1.0,2.0,73,0.00,,,0.00,,2013-02-11 13:32:00,
2013-02-11 06:41:00,26.0,19.0,29.69,ESE,113,1.0,2.0,73,0.00,,,0.00,,2013-02-11 13:41:00,
2013-02-11 06:52:00,26.0,18.0,29.73,ENE,68,2.0,4.0,70,0.00,,,0.00,,2013-02-11 13:52:00,
2013-02-11 07:01:00,26.0,18.0,29.69,NNE,23,0.0,1.0,71,0.00,,,0.00,,2013-02-11 14:01:00,
2013-02-11 07:11:00,26.0,18.0,29.69,NNE,23,0.0,1.0,71,0.00,,,0.00,,2013-02-11 14:11:00,
2013-02-11 07:21:00,26.0,18.0,29.73,ENE,68,0.0,2.0,71,0.00,,,0.00,,2013-02-11 14:21:00,
2013-02-11 07:32:00,26.0,18.0,29.73,ENE,68,0.0,1.0,72,0.00,,,0.00,,2013-02-11 14:32:00,
2013-02-11 07:41:00,26.0,18.0,29.73,ESE,113,2.0,2.0,70,0.00,,,0.00,,2013-02-11 14:41:00,
2013-02-11 07:52:00,26.0,18.0,29.73,ESE,113,2.0,2.0,70,0.00,,,0.00,,2013-02-11 14:52:00,
2013-02-11 08:01:00,26.0,18.0,29.73,ENE,68,0.0,1.0,71,0.00,,,0.00,,2013-02-11 15:01:00,
2013-02-11 08:11:00,26.0,18.0,29.73,ENE,68,0.0,1.0,71,0.00,,,0.00,,2013-02-11 15:11:00,
2013-02-11 08:22:00,27.0,19.0,29.73,NE,45,1.0,1.0,71,0.00,,,0.00,,2013-02-11 15:22:00,
2013-02-11 08:31:00,27.0,18.0,29.73,SE,135,0.0,3.0,69,0.00,,,0.00,,2013-02-11 15:31:00,
2013-02-11 08:41:00,27.0,18.0,29.73,ESE,113,1.0,2.0,69,0.00,,,0.00,,2013-02-11 15:41:00,
2013-02-11 08:52:00,27.0,18.0,29.73,ESE,113,1.0,2.0,69,0.00,,,0.00,,2013-02-11 15:52:00,
2013-02-11 09:01:00,28.0,20.0,29.73,SE,135,0.0,1.0,70,0.00,,,0.00,,2013-02-11 16:01:00,
2013-02-11 09:11:00,29.0,21.0,29.73,SSE,158,0.0,0.0,71,0.00,,,0.00,,2013-02-11 16:11:00,
2013-02-11 09:21:00,29.0,21.0,29.73,SSE,158,0.0,0.0,71,0.00,,,0.00,,2013-02-11 16:21:00,
2013-02-11 09:31:00,30.0,22.0,29.73,West,270,0.0,1.0,71,0.00,,,0.00,,2013-02-11 16:31:00,
2013-02-11 09:41:00,31.0,23.0,29.73,SE,135,0.0,1.0,71,0.00,,,0.00,,2013-02-11 16:41:00,
2013-02-11 09:52:00,31.0,23.0,29.73,SE,135,0.0,1.0,71,0.00,,,0.00,,2013-02-11 16:52:00,
2013-02-11 10:01:00,31.0,22.0,29.69,ESE,113,2.0,2.0,69,0.00,,,0.00,,2013-02-11 17:01:00,
2013-02-11 10:11:00,31.0,22.0,29.69,ESE,113,2.0,2.0,69,0.00,,,0.00,,2013-02-11 17:11:00,
2013-02-11 10:21:00,31.0,21.0,29.69,East,90,2.0,3.0,67,0.00,,,0.00,,2013-02-11 17:21:00,
2013-02-11 10:31:00,31.0,21.0,29.69,East,90,2.0,3.0,67,0.00,,,0.00,,2013-02-11 17:31:00,
2013-02-11 10:41:00,31.0,21.0,29.69,East,90,2.0,3.0,67,0.00,,,0.00,,2013-02-11 17:41:00,
2013-02-11 10:52:00,34.0,23.0,29.69,West,270,0.0,1.0,63,0.00,,,0.00,,2013-02-11 17:52:00,
2013-02-11 11:01:00,34.0,22.0,29.66,SSE,158,0.0,2.0,60,0.00,,,0.00,,2013-02-11 18:01:00,
2013-02-11 11:11:00,34.0,22.0,29.66,SSE,158,0.0,2.0,60,0.00,,,0.00,,2013-02-11 18:11:00,
2013-02-11 11:21:00,35.0,23.0,29.69,ESE,113,2.0,2.0,61,0.00,,,0.00,,2013-02-11 18:21:00,
2013-02-11 11:31:00,36.0,23.0,29.66,South,180,0.0,0.0,59,0.00,,,0.00,,2013-02-11 18:31:00,
2013-02-11 11:41:00,37.0,24.0,29.69,ENE,68,0.0,3.0,58,0.00,,,0.00,,2013-02-11 18:41:00,
2013-02-11 11:53:00,37.0,24.0,29.69,ENE,68,0.0,3.0,58,0.00,,,0.00,,2013-02-11 18:53:00,
2013-02-11 12:01:00,38.0,23.0,29.69,SSW,203,1.0,3.0,55,0.00,,,0.00,,2013-02-11 19:01:00,
2013-02-11 12:11:00,40.0,25.0,29.73,WSW,248,3.0,4.0,55,0.00,,,0.00,,2013-02-11 19:11:00,
2013-02-11 12:21:00,40.0,25.0,29.73,WSW,248,3.0,4.0,55,0.00,,,0.00,,2013-02-11 19:21:00,
2013-02-11 12:31:00,41.0,25.0,29.69,SSW,203,3.0,3.0,52,0.00,,,0.00,,2013-02-11 19:31:00,
2013-02-11 12:41:00,41.0,25.0,29.69,SSW,203,3.0,3.0,52,0.00,,,0.00,,2013-02-11 19:41:00,
2013-02-11 12:51:00,44.0,27.0,29.69,West,270,2.0,4.0,51,0.00,,,0.00,,2013-02-11 19:51:00,
2013-02-11 13:01:00,45.0,26.0,29.69,SSW,203,3.0,4.0,47,0.00,,,0.00,,2013-02-11 20:01:00,
2013-02-11 13:11:00,46.0,28.0,29.69,SSE,158,3.0,4.0,49,0.00,,,0.00,,2013-02-11 20:11:00,
2013-02-11 13:21:00,46.0,28.0,29.69,SSE,158,3.0,4.0,49,0.00,,,0.00,,2013-02-11 20:21:00,
2013-02-11 13:31:00,48.0,29.0,29.66,East,90,2.0,6.0,47,0.00,,,0.00,,2013-02-11 20:31:00,
2013-02-11 13:41:00,48.0,26.0,29.66,ESE,113,4.0,5.0,42,0.00,,,0.00,,2013-02-11 20:41:00,
2013-02-11 13:52:00,48.0,26.0,29.66,ESE,113,4.0,5.0,42,0.00,,,0.00,,2013-02-11 20:52:00,
2013-02-11 14:01:00,47.0,25.0,29.66,SSE,158,4.0,6.0,41,0.00,,,0.00,,2013-02-11 21:01:00,
2013-02-11 14:11:00,45.0,24.0,29.66,SSW,203,1.0,3.0,43,0.04,,,0.04,,2013-02-11 21:11:00,
2013-02-11 14:21:00,45.0,24.0,29.66,SSW,203,1.0,3.0,43,0.04,,,0.04,,2013-02-11 21:21:00,
2013-02-11 14:31:00,45.0,24.0,29.66,SSW,203,5.0,6.0,43,0.04,,,0.04,,2013-02-11 21:31:00,
2013-02-11 14:41:00,45.0,24.0,29.66,WSW,248,4.0,6.0,44,0.04,,,0.04,,2013-02-11 21:41:00,
2013-02-11 14:52:00,45.0,24.0,29.66,WSW,248,4.0,6.0,44,0.04,,,0.04,,2013-02-11 21:52:00,
2013-02-11 15:01:00,45.0,24.0,29.66,West,270,4.0,6.0,43,0.08,,,0.08,,2013-02-11 22:01:00,
2013-02-11 15:11:00,44.0,22.0,29.66,West,270,2.0,5.0,42,0.04,,,0.08,,2013-02-11 22:11:00,
2013-02-11 15:21:00,44.0,22.0,29.66,West,270,2.0,5.0,42,0.04,,,0.08,,2013-02-11 22:21:00,
2013-02-11 15:31:00,43.0,22.0,29.66,West,270,9.0,10.0,42,0.08,,,0.12,,2013-02-11 22:31:00,
2013-02-11 15:41:00,43.0,22.0,29.66,West,270,9.0,10.0,42,0.08,,,0.12,,2013-02-11 22:41:00,
2013-02-11 15:52:00,45.0,24.0,29.66,West,270,9.0,11.0,43,0.08,,,0.12,,2013-02-11 22:52:00,
2013-02-11 16:01:00,47.0,25.0,29.69,NW,315,5.0,11.0,41,0.04,,,0.12,,2013-02-11 23:01:00,
2013-02-11 16:11:00,47.0,25.0,29.69,NW,315,5.0,11.0,41,0.04,,,0.12,,2013-02-11 23:11:00,
2013-02-11 16:21:00,46.0,23.0,29.69,SSW,203,1.0,5.0,40,0.04,,,0.12,,2013-02-11 23:21:00,
2013-02-11 16:31:00,45.0,22.0,29.73,SW,225,3.0,5.0,40,0.00,,,0.12,,2013-02-11 23:31:00,
2013-02-11 16:41:00,45.0,22.0,29.73,SW,225,3.0,5.0,40,0.00,,,0.12,,2013-02-11 23:41:00,
2013-02-11 16:52:00,42.0,23.0,29.73,ESE,113,7.0,10.0,46,0.00,,,0.12,,2013-02-11 23:52:00,
2013-02-11 17:01:00,38.0,24.0,29.73,NE,45,11.0,14.0,57,0.00,,,0.12,,2013-02-12 00:01:00,
2013-02-11 17:11:00,38.0,24.0,29.73,NE,45,11.0,14.0,57,0.00,,,0.12,,2013-02-12 00:11:00,
2013-02-11 17:21:00,36.0,25.0,29.76,SE,135,7.0,11.0,65,0.00,,,0.12,,2013-02-12 00:21:00,
2013-02-11 17:31:00,35.0,27.0,29.73,East,90,6.0,10.0,72,0.00,,,0.12,,2013-02-12 00:31:00,
2013-02-11 17:41:00,35.0,27.0,29.73,East,90,6.0,10.0,72,0.00,,,0.12,,2013-02-12 00:41:00,
2013-02-11 17:52:00,34.0,27.0,29.73,NE,45,7.0,9.0,74,0.00,,,0.12,,2013-02-12 00:52:00,
2013-02-11 18:01:00,34.0,27.0,29.69,NE,45,4.0,8.0,75,0.00,,,0.12,,2013-02-12 01:01:00,
2013-02-11 18:11:00,34.0,27.0,29.69,NE,45,4.0,8.0,75,0.00,,,0.12,,2013-02-12 01:11:00,
2013-02-11 18:21:00,35.0,28.0,29.73,NE,45,4.0,4.0,74,0.00,,,0.12,,2013-02-12 01:21:00,
2013-02-11 18:31:00,34.0,26.0,29.73,NE,45,2.0,4.0,71,0.00,,,0.12,,2013-02-12 01:31:00,
2013-02-11 18:41:00,34.0,26.0,29.73,North,0,1.0,3.0,72,0.00,,,0.12,,2013-02-12 01:41:00,
2013-02-11 18:52:00,34.0,26.0,29.73,North,0,1.0,3.0,72,0.00,,,0.12,,2013-02-12 01:52:00,
2013-02-11 19:01:00,34.0,26.0,29.73,East,90,0.0,1.0,72,0.00,,,0.12,,2013-02-12 02:01:00,
2013-02-11 19:11:00,34.0,26.0,29.73,ESE,113,0.0,2.0,72,0.00,,,0.12,,2013-02-12 02:11:00,
2013-02-11 19:21:00,34.0,26.0,29.73,ESE,113,0.0,2.0,72,0.00,,,0.12,,2013-02-12 02:21:00,
2013-02-11 19:31:00,34.0,26.0,29.73,East,90,3.0,4.0,73,0.00,,,0.12,,2013-02-12 02:31:00,
2013-02-11 19:41:00,34.0,26.0,29.73,East,90,3.0,4.0,73,0.00,,,0.12,,2013-02-12 02:41:00,
2013-02-11 19:52:00,34.0,27.0,29.73,ENE,68,3.0,4.0,74,0.00,,,0.12,,2013-02-12 02:52:00,
2013-02-11 20:01:00,33.0,25.0,29.76,ENE,68,4.0,4.0,72,0.00,,,0.12,,2013-02-12 03:01:00,
2013-02-11 20:11:00,33.0,25.0,29.76,ENE,68,3.0,4.0,71,0.00,,,0.12,,2013-02-12 03:11:00,
2013-02-11 20:21:00,33.0,25.0,29.76,ENE,68,3.0,4.0,71,0.00,,,0.12,,2013-02-12 03:21:00,
2013-02-11 20:31:00,33.0,25.0,29.76,SW,225,1.0,2.0,72,0.00,,,0.12,,2013-02-12 03:31:00,
2013-02-11 20:41:00,33.0,24.0,29.79,ENE,68,2.0,3.0,70,0.00,,,0.12,,2013-02-12 03:41:00,
2013-02-11 20:51:00,33.0,24.0,29.79,ENE,68,2.0,3.0,70,0.00,,,0.12,,2013-02-12 03:51:00,
2013-02-11 21:01:00,32.0,23.0,29.79,ENE,68,1.0,3.0,70,0.00,,,0.12,,2013-02-12 04:01:00,
2013-02-11 21:11:00,32.0,23.0,29.79,ENE,68,1.0,3.0,70,0.00,,,0.12,,2013-02-12 04:11:00,
2013-02-11 21:21:00,32.0,24.0,29.79,North,0,2.0,3.0,71,0.00,,,0.12,,2013-02-12 04:21:00,
2013-02-11 21:31:00,31.0,22.0,29.76,ENE,68,2.0,3.0,69,0.00,,,0.12,,2013-02-12 04:31:00,
2013-02-11 21:41:00,31.0,22.0,29.76,ENE,68,2.0,3.0,69,0.00,,,0.12,,2013-02-12 04:41:00,
2013-02-11 21:52:00,31.0,22.0,29.79,NNW,338,1.0,2.0,70,0.00,,,0.12,,2013-02-12 04:52:00,
2013-02-11 22:01:00,30.0,21.0,29.79,ENE,68,2.0,4.0,68,0.00,,,0.12,,2013-02-12 05:01:00,
2013-02-11 22:11:00,30.0,21.0,29.79,NE,45,2.0,4.0,68,0.00,,,0.12,,2013-02-12 05:11:00,
2013-02-11 22:21:00,30.0,21.0,29.79,NE,45,2.0,4.0,68,0.00,,,0.12,,2013-02-12 05:21:00,
2013-02-11 22:31:00,31.0,24.0,29.79,East,90,3.0,5.0,74,0.00,,,0.12,,2013-02-12 05:31:00,
2013-02-11 22:41:00,31.0,24.0,29.79,East,90,3.0,5.0,74,0.00,,,0.12,,2013-02-12 05:41:00,
2013-02-11 22:52:00,31.0,22.0,29.79,NNE,23,2.0,3.0,68,0.00,,,0.12,,2013-02-12 05:52:00,
2013-02-11 23:01:00,30.0,20.0,29.83,NNE,23,2.0,3.0,67,0.00,,,0.12,,2013-02-12 06:01:00,
2013-02-11 23:11:00,30.0,20.0,29.83,ENE,68,2.0,2.0,67,0.00,,,0.12,,2013-02-12 06:11:00,
2013-02-11 23:21:00,30.0,20.0,29.83,ENE,68,2.0,2.0,67,0.00,,,0.12,,2013-02-12 06:21:00,
2013-02-11 23:31:00,29.0,18.0,29.83,NNW,338,2.0,6.0,63,0.00,,,0.12,,2013-02-12 06:31:00,
2013-02-11 23:42:00,29.0,19.0,29.86,WNW,293,0.0,2.0,65,0.00,,,0.12,,2013-02-12 06:42:00,
2013-02-11 23:52:00,29.0,19.0,29.86,WNW,293,0.0,2.0,65,0.00,,,0.12,,2013-02-12 06:52:00,